Location: Moscow
(55.7500°N, 37.5830°E)
Time: 00:49:24
(UTC+03:00)

Explorer 7 - Pass Details

Date: 01 December 2021
Orbit: 483 x 674 km, 50.3° (Epoch: 17 January)

Event Time Altitude Azimuth Distance (km) Brightness Sun altitude
Rises 13:06:07 0° 270° (W) 2,598 10.4 11.7°
Reaches altitude 10° 13:09:37 10° 237° (WSW) 1,682 10.1 11.6°
Maximum altitude 13:10:57 12° 217° (SW) 1,576 10.6 11.6°
Drops below altitude 10° 13:12:14 10° 196° (SSW) 1,661 12.8 11.6°
Sets 13:15:42 0° 162° (SSE) 2,535 11.3 11.4°
